Location: Madrid
(40.4000°N, 3.6830°W)
Time: 16:04:56
(UTC+02:00)

ISS - Pass Details

Date: 11 March 2021
Orbit: 418 x 422 km, 51.6° (Epoch: 16 April)

Event Time Altitude Azimuth Distance (km) Brightness Sun altitude
Exits shadow 06:33:31 16° 298° (WNW) 1,185 -2.0 -12.1°
Maximum altitude 06:36:03 61° 220° (SW) 477 -3.7 -11.6°
Drops below altitude 10° 06:39:21 10° 139° (SE) 1,489 -0.5 -11.0°
Sets 06:41:27 0° 136° (SE) 2,350 0.7 -10.6°
